GW0910 Weather Reports


Display with metric or nautical units.
time (UTC)temp
F
wind
direction
speed
MPH
gust
MPH
rain 1hr
in
rain 24hr
in
rain mn
in
humidity
%
barometer
mb
20260505041642 89 0.0 0.0 0.00 0.00 0.00 85 1010.9
20260505041140 89 0.0 0.0 0.00 0.00 0.00 85 1010.6
20260505040637 89 0.0 0.0 0.00 0.00 0.00 85 1010.6
20260505040134 89 0.0 0.0 0.00 0.00 0.00 85 1010.6
20260505035630 89 0.0 0.0 0.00 0.00 0.00 85 1010.9
20260505035126 89 0.0 0.0 0.00 0.00 0.00 85 1010.9
20260505034623 89 0.0 0.0 0.00 0.00 0.00 86 1011.3
20260505034120 89 0.0 0.0 0.00 0.00 0.00 86 1010.9
20260505033617 89 0.0 0.0 0.00 0.00 0.00 86 1011.3
20260505033116 89 0.0 0.0 0.00 0.00 0.00 87 1011.3
20260505032613 89 0.0 0.0 0.00 0.00 0.00 87 1011.3
20260505032109 88 0.0 0.0 0.00 0.00 0.00 87 1011.3
20260505031607 88 0.0 0.0 0.00 0.00 0.00 87 1011.3
20260505031102 88 0.0 0.0 0.00 0.00 0.00 87 1011.3
20260505030559 88 0.0 0.0 0.00 0.00 0.00 87 1011.6
20260505030050 88 0.0 0.0 0.00 0.00 0.00 88 1011.3
20260505025546 88 0.0 0.0 0.00 0.00 0.00 87 1011.3
20260505025045 88 0.0 0.0 0.00 0.00 0.00 88 1011.3
20260505024542 88 0.0 0.0 0.00 0.00 0.00 88 1011.3
20260505024039 88 0.0 0.0 0.00 0.00 0.00 88 1011.6
20260505023536 88 0.0 0.0 0.00 0.00 0.00 87 1011.6
20260505023033 88 0.0 0.0 0.00 0.00 0.00 88 1011.6
20260505022531 88 0.0 0.0 0.00 0.00 0.00 88 1011.9
20260505022028 88 0.0 0.0 0.00 0.00 0.00 88 1011.9
20260505021524 87 0.0 0.0 0.00 0.00 0.00 88 1011.9
20260505021020 87 0.0 0.0 0.00 0.00 0.00 89 1011.9
20260505020515 87 0.0 0.0 0.00 0.00 0.00 89 1011.9
20260505020013 87 0.0 0.0 0.00 0.00 0.00 89 1011.9
20260505015509 87 0.0 0.0 0.00 0.00 0.00 88 1011.9
20260505015006 87 0.0 0.0 0.00 0.00 0.00 88 1012.3
20260505014503 87 0.0 0.0 0.00 0.00 0.00 88 1011.9
20260505014001 88 0.0 0.0 0.00 0.00 0.00 87 1012.3
20260505013457 88 0.0 0.0 0.00 0.00 0.00 86 1011.9
20260505012954 88 0.0 0.0 0.00 0.00 0.00 85 1012.3
20260505012453 88 0.0 0.0 0.00 0.00 0.00 84 1012.3
20260505011949 89 0.0 0.0 0.00 0.00 0.00 83 1012.3
20260505011445 89 0.0 0.0 0.00 0.00 0.00 81 1011.9
20260505010942 89 0.0 0.0 0.00 0.00 0.00 80 1011.9
20260505010438 89 0.0 0.0 0.00 0.00 0.00 80 1011.9
20260505005934 89 0.0 0.0 0.00 0.00 0.00 80 1011.9
20260505005431 89 0.0 0.0 0.00 0.00 0.00 78 1012.3
20260505004929 89 0.0 0.0 0.00 0.00 0.00 76 1011.9
20260505004425 89 0.0 0.0 0.00 0.00 0.00 77 1012.3
20260505003922 89 0.0 0.0 0.00 0.00 0.00 79 1012.3
20260505003419 89 0.0 0.0 0.00 0.00 0.00 76 1012.3
20260505002915 89 0.0 0.0 0.00 0.00 0.00 76 1011.9
20260505002412 89 0.0 0.0 0.00 0.00 0.00 77 1012.3
20260505001910 89 0.0 0.0 0.00 0.00 0.00 76 1011.9
20260505001408 89 0.0 0.0 0.00 0.00 0.00 77 1011.9
20260505000905 89 0.0 0.0 0.00 0.00 0.00 77 1012.3
20260505000403 89 0.0 0.0 0.00 0.00 0.00 77 1012.3
20260504235859 89 0.0 0.0 0.00 0.00 0.00 77 1011.9
20260504235356 89 0.0 0.0 0.00 0.00 0.00 77 1012.3
20260504234852 89 0.0 0.0 0.00 0.00 0.00 77 1012.3
20260504234350 88 0.0 0.0 0.00 0.00 0.00 77 1012.3
20260504233846 88 0.0 0.0 0.00 0.00 0.00 78 1012.3
20260504233342 88 0.0 0.0 0.00 0.00 0.00 78 1012.3
20260504232839 88 0.0 0.0 0.00 0.00 0.00 78 1011.9
20260504232336 88 0.0 0.0 0.00 0.00 0.00 78 1012.3
20260504231833 88 0.0 0.0 0.00 0.00 0.00 79 1012.3
20260504231329 88 0.0 0.0 0.00 0.00 0.00 79 1012.3
20260504230825 87 0.0 0.0 0.00 0.00 0.00 79 1011.9
20260504230323 87 0.0 0.0 0.00 0.00 0.00 79 1011.9
20260504225822 87 0.0 0.0 0.00 0.00 0.00 79 1011.9
20260504225318 87 0.0 0.0 0.00 0.00 0.00 80 1011.9
20260504224815 87 0.0 0.0 0.00 0.00 0.00 80 1011.9
20260504224312 87 0.0 0.0 0.00 0.00 0.00 80 1011.9
20260504223809 87 0.0 0.0 0.00 0.00 0.00 81 1011.6
20260504223304 87 0.0 0.0 0.00 0.00 0.00 81 1011.9
20260504222801 87 0.0 0.0 0.00 0.00 0.00 81 1011.9
20260504222258 87 0.0 0.0 0.00 0.00 0.00 81 1011.6
20260504221756 87 0.0 0.0 0.00 0.00 0.00 81 1011.6
20260504221253 86 0.0 0.0 0.00 0.00 0.00 81 1011.6
20260504220749 86 0.0 0.0 0.00 0.00 0.00 81 1011.6
20260504220247 86 0.0 0.0 0.00 0.00 0.00 81 1011.6
20260504215744 86 0.0 0.0 0.00 0.00 0.00 81 1011.9
20260504215240 86 0.0 0.0 0.00 0.00 0.00 81 1011.6
20260504214736 86 0.0 0.0 0.00 0.00 0.00 81 1011.6
20260504214233 86 0.0 0.0 0.00 0.00 0.00 81 1011.6
20260504213730 86 0.0 0.0 0.00 0.00 0.00 81 1011.6
20260504213226 86 0.0 0.0 0.00 0.00 0.00 81 1011.6
20260504212723 86 0.0 0.0 0.00 0.00 0.00 81 1011.6
20260504212219 86 0.0 0.0 0.00 0.00 0.00 80 1011.6
20260504211717 87 0.0 0.0 0.00 0.00 0.00 80 1011.3
20260504211213 87 0.0 0.0 0.00 0.00 0.00 80 1011.6
20260504210711 87 0.0 0.0 0.00 0.00 0.00 79 1011.3
20260504210208 87 0.0 0.0 0.00 0.00 0.00 79 1011.3
20260504205705 87 0.0 0.0 0.00 0.00 0.00 79 1011.3
20260504205202 87 0.0 0.0 0.00 0.00 0.00 79 1011.3
20260504204700 87 0.0 0.0 0.00 0.00 0.00 79 1011.3
20260504204159 87 0.0 0.0 0.00 0.00 0.00 79 1011.3
20260504203657 87 0.0 0.0 0.00 0.00 0.00 79 1010.9
20260504203155 87 0.0 0.0 0.00 0.00 0.00 80 1010.9
20260504202654 86 0.0 0.0 0.00 0.00 0.00 81 1011.3
20260504202152 86 0.0 0.0 0.00 0.00 0.00 81 1010.9
20260504201649 86 0.0 0.0 0.00 0.00 0.00 81 1010.9
20260504201146 86 0.0 0.0 0.00 0.00 0.00 81 1010.6
20260504200643 86 0.0 0.0 0.00 0.00 0.00 81 1010.9
20260504200140 87 0.0 0.0 0.00 0.00 0.00 80 1010.6
20260504195636 87 0.0 0.0 0.00 0.00 0.00 80 1010.9
20260504195132 87 0.0 0.0 0.00 0.00 0.00 80 1010.9
20260504194629 87 0.0 0.0 0.00 0.00 0.00 80 1010.9
20260504194125 87 0.0 0.0 0.00 0.00 0.00 80 1010.9
20260504193621 87 0.0 0.0 0.00 0.00 0.00 80 1010.9
20260504193120 87 0.0 0.0 0.00 0.00 0.00 80 1010.9
20260504192618 87 0.0 0.0 0.00 0.00 0.00 80 1010.9
20260504192115 87 0.0 0.0 0.00 0.00 0.00 79 1010.9
20260504191614 87 0.0 0.0 0.00 0.00 0.00 79 1010.9
20260504191109 87 0.0 0.0 0.00 0.00 0.00 79 1011.3
20260504190606 87 0.0 0.0 0.00 0.00 0.00 79 1010.9
20260504185559 87 0.0 0.0 0.00 0.00 0.00 79 1011.3
20260504185055 87 0.0 0.0 0.00 0.00 0.00 79 1010.9
20260504184551 87 0.0 0.0 0.00 0.00 0.00 79 1010.9
20260504184046 87 0.0 0.0 0.00 0.00 0.00 79 1010.9
20260504183544 87 0.0 0.0 0.00 0.00 0.00 79 1011.3
20260504183042 87 0.0 0.0 0.00 0.00 0.00 78 1011.3
20260504182539 87 0.0 0.0 0.00 0.00 0.00 79 1010.9
20260504182036 87 0.0 0.0 0.00 0.00 0.00 78 1011.3
20260504181533 87 0.0 0.0 0.00 0.00 0.00 78 1011.3
20260504181031 87 0.0 0.0 0.00 0.00 0.00 78 1011.3
20260504180530 87 0.0 0.0 0.00 0.00 0.00 78 1011.3
20260504180028 87 0.0 0.0 0.00 0.00 0.00 78 1011.3
20260504175525 87 0.0 0.0 0.00 0.00 0.00 77 1011.3
20260504175022 87 0.0 0.0 0.00 0.00 0.00 77 1011.6
20260504174520 88 0.0 0.0 0.00 0.00 0.00 77 1011.3
20260504174017 88 0.0 0.0 0.00 0.00 0.00 77 1011.3
20260504173513 88 0.0 0.0 0.00 0.00 0.00 77 1011.3
20260504173011 88 0.0 0.0 0.00 0.00 0.00 77 1011.6
20260504172507 88 0.0 0.0 0.00 0.00 0.00 77 1011.9
20260504172003 88 0.0 0.0 0.00 0.00 0.00 77 1011.6
20260504171500 88 0.0 0.0 0.00 0.00 0.00 77 1011.9
20260504170957 88 0.0 0.0 0.00 0.00 0.00 76 1011.6
20260504170453 88 0.0 0.0 0.00 0.00 0.00 76 1011.6
20260504160413 89 0.0 0.0 0.00 0.00 0.00 75 1012.3
20260504150837 89 0.0 0.0 0.00 0.00 0.00 77 1013.0
20260504150334 89 0.0 0.0 0.00 0.00 0.00 77 1012.6
20260504141304 89 0.0 0.0 0.00 0.00 0.00 77 1012.3
20260504140800 89 0.0 0.0 0.00 0.00 0.00 77 1011.9
20260504140256 89 0.0 0.0 0.00 0.00 0.00 77 1012.3
20260504130725 90 0.0 0.0 0.00 0.00 0.00 75 1011.6
20260504130220 90 0.0 0.0 0.00 0.00 0.00 75 1011.6
20260504120145 91 0.0 0.0 0.00 0.00 0.00 74 1011.6
20260504110612 92 0.0 0.0 0.00 0.00 0.00 74 1010.9
20260504110108 92 0.0 0.0 0.00 0.00 0.00 74 1010.9
20260504100534 94 0.0 0.0 0.00 0.00 0.00 66 1009.9
20260504081927 98 0.0 0.0 0.00 0.00 0.00 60 1009.6
20260504081424 98 0.0 0.0 0.00 0.00 0.00 59 1009.6
20260504080920 98 0.0 0.0 0.00 0.00 0.00 59 1009.6
20260504080417 98 0.0 0.0 0.00 0.00 0.00 60 1009.6
20260504070344 96 0.0 0.0 0.00 0.00 0.00 62 1010.2
20260504050732 95 0.0 0.0 0.00 0.00 0.00 69 1011.6
20260504050229 95 0.0 0.0 0.00 0.00 0.00 70 1011.9
20260504045727 95 0.0 0.0 0.00 0.00 0.00 70 1011.6